Location: Barcelona
(41.3830°N, 2.1830°E)
Time: 12:11:33
(UTC+02:00)

ISS - Pass Details

Date: 05 April 2020
Orbit: 417 x 419 km, 51.6° (Epoch: 31 May)

Event Time Altitude Azimuth Distance (km) Brightness Sun altitude
Rises 20:57:28 0° 305° (NW) 2,366 1.6 -7.5°
Reaches altitude 10° 20:59:35 10° 306° (NW) 1,498 0.4 -7.9°
Maximum altitude 21:02:57 87° 34° (NE) 422 -3.8 -8.5°
Enters shadow 21:06:04 12° 125° (SE) 1,398 -1.7 -9.0°
